Regional Weather Roundup
Issued by NWS Kansas City/Pleasant Hill, MO

Home | Current Version | Previous Version | Graphics & Text | Print | Product List | Glossary Off
Versions: 1 2 3 4 5 6 7 8 9 10 11 12 13 14 15 16 17 18 19 20 21 22 23 24 25 26 27 28 29 30 31 32 33 34 35 36 37 38 39 40 41 42 43 44 45 46 47 48 49 50

000
ASUS43 KEAX 201810
RWREAX

WEATHER ROUNDUP FOR EASTERN KANSAS AND NORTHWEST MISSOURI
NATIONAL WEATHER SERVICE KANSAS CITY/PLEASANT HILL MO
1200 PM CST SAT DEC 20 2014

KSZ040-057-103>105-MOZ028-029-037-043-201900-
...KANSAS CITY METROPOLITAN AREA...

CITY           SKY/WX    TMP DP  RH WIND       PRES   REMARKS
K.C. INTL      CLOUDY    41  36  82 S9        30.14F
6HR MIN TEMP:  33; 6HR MAX TEMP:  41;

K.C. DOWNTOWN  PTSUNNY   44  36  73 S8        30.15F
6HR MIN TEMP:  35; 6HR MAX TEMP:  44;

LEES SUMMIT    CLOUDY    40  34  79 S8        30.16F WCI  34
6HR MIN TEMP:  33; 6HR MAX TEMP:  40;

OLATHE - IXD   SUNNY     42  37  82 S12       30.15F
6HR MIN TEMP:  32; 6HR MAX TEMP:  42;

OLATHE - OJC   SUNNY     42  36  79 S10       30.15F
6HR MIN TEMP:  33; 6HR MAX TEMP:  42;

LAWRENCE       SUNNY     44  36  73 SW10      30.15F

$$

MOZ001>008-011>017-020>025-030>033-038>040-044>046-053-054-201900-
...NORTHERN AND CENTRAL MISSOURI...

CITY           SKY/WX    TMP DP  RH WIND       PRES   REMARKS
ST. JOSEPH     CLOUDY    39  34  82 S10       30.15F WCI  32
6HR MIN TEMP:  31; 6HR MAX TEMP:  39;

MOSBY          CLOUDY    37  34  87 S9        30.17F WCI  31
WARRENSBURG    CLOUDY    37  34  87 S8        30.20F WCI  31
WHITEMAN AFB   CLOUDY    38  35  87 SW10      30.19F WCI  31
6HR MIN TEMP:  36; 6HR MAX TEMP:  38;

CLINTON        CLOUDY    39  37  93 SW8       30.22S WCI  34
SEDALIA        CLOUDY    39  35  86 SW8       30.21F WCI  33
6HR MIN TEMP:  38; 6HR MAX TEMP:  39;

WARSAW         NOT AVBL
MARSHALL       CLOUDY    39  37  93 SW8       30.22F WCI  34
CHILLICOTHE      N/A     37  33  85 S8        30.19F WCI  31
6HR MIN TEMP:  34; 6HR MAX TEMP:  37;

MOBERLY        CLOUDY    39  36  87 S5        30.21  FOG
KIRKSVILLE     CLOUDY    36  36 100 SW6       30.19F FOG     WCI  31
6HR MIN TEMP:  32; 6HR MAX TEMP:  37; 6HR PCP: TRACE;


$$

MOZ041-047>049-056>058-063>065-088>090-097-201900-
...EASTERN AND SOUTHERN MISSOURI...

CITY           SKY/WX    TMP DP  RH WIND       PRES   REMARKS
ST. LOUIS INTL CLOUDY    41  32  70 SE3       30.25F
6HR MIN TEMP:  36; 6HR MAX TEMP:  41;

SPIRIT OF STL  CLOUDY    41  33  73 CALM      30.24F
COLUMBIA       CLOUDY    40  37  89 S6        30.20F
JEFFERSON CITY CLOUDY    41  35  79 SE3       30.22F
MEXICO         CLOUDY   N/A N/A N/A S6        30.22F HAZE
HANNIBAL       CLOUDY    39  32  75 S6        30.22F HAZE    WCI  35
ROLLA          CLOUDY    40  35  83 SE5       30.19F
LEBANON        CLOUDY    41  36  81 S7        30.20F
OSAGE BEACH    CLOUDY    43  34  70 SW8       30.20F
SPRINGFIELD    CLOUDY    41  36  82 SW6       30.20F
BRANSON        CLOUDY    41  39  93 CALM      30.22F FOG
NEVADA         CLOUDY    39  34  81 S8        30.22F WCI  34
JOPLIN         PTSUNNY   42  34  73 SW8       30.22F
WEST PLAINS    CLOUDY    38  34  85 CALM      30.23F

$$

IAZ060-094-KSZ022-034>040-054-083-096-NEZ052-066-093-201900-
...KANSAS...SOUTHEAST NEBRASKA AND IOWA...

CITY           SKY/WX    TMP DP  RH WIND       PRES   REMARKS
TOPEKA         SUNNY     45  37  73 SW12      30.14F
6HR MIN TEMP:  31; 6HR MAX TEMP:  45;

MANHATTAN      SUNNY     44  38  79 SW12      30.10F
EMPORIA        SUNNY     43  37  79 SW17      30.14F
CHANUTE        PTSUNNY   44  35  70 S13       30.20S
WICHITA        MOSUNNY   47  38  71 S13       30.15F
OMAHA          CLOUDY    33  31  92 SE8       30.12F FOG     WCI  26
LINCOLN        CLOUDY    33  31  92 SW3       30.11F FOG
FALLS CITY     CLOUDY    34  31  88 SW8       30.12F FOG     WCI  27
LAMONI         CLOUDY    33  32  96 S9        30.14F FOG     WCI  25
DES MOINES     CLOUDY    34  31  88 S8        30.16F FOG     WCI  27

$$




USA.gov is the U.S. government's official web portal to all federal, state and local government web resources and services.